Terminal Aerodrome Forecast
Issued by NWS

Home | Current Version | Previous Version | Graphics & Text | Print | Product List | Glossary Off
Versions: 1 2 3 4 5 6 7 8 9 10 11 12 13 14 15 16 17 18 19 20 21 22 23 24 25 26 27 28 29 30 31

000
FTUS43 KLOT 301103 AAB
TAFORD
TAF AMD
KORD 301103Z 3011/3112 04010KT P6SM VCSH OVC015
     FM301400 05010KT P6SM VCSH BKN025 BKN040
     FM301600 05010KT 6SM SHRA VCTS SCT025 BKN035CB
      TEMPO 3016/3018 4SM SHRA OVC025
     FM302000 05010KT P6SM BKN040
     FM310200 03005KT 6SM BR SCT040=

USA.gov is the U.S. government's official web portal to all federal, state and local government web resources and services.